User: anonymous   Login
Location: NJAA Observatory
(40.6819°N, 74.8979°W)
Time: 23:20:59
(UTC-05:00)
Language:

Cosmos 1633 - Orbit

View from above orbital plane
View from above orbital plane
View from above satellite
View from above satellite

Ground track
Ground track

The orbit data is extracted from the following two-line orbital elements,

1 15592U 85020A   15064.55268769  .00007353  00000-0  31577-3 0  9995
2 15592 082.5369 072.6633 0014244 233.8127 250.6703 15.22439939636998
Epoch (UTC): 05 March 2015 13:15:52
Eccentricity: 0.0014244
inclination: 82.5369°
perigee height: 488 km
apogee height: 508 km
right ascension of ascending node: 72.6633°
argument of perigee: 233.8127°
revolutions per day: 15.22439939
mean anomaly at epoch: 250.6703°
orbit number at epoch: 63699

The dashed part of the orbit path shows where the satellite is in the earth's shadow,  

DLR